Location: Brno
(49.2000°N, 16.6330°E)
Time: 23:09:32
(UTC+01:00)

RESURS DK-1 - Visible Passes

Search period start: 22 March 2017 00:00
Search period end: 01 April 2017 01:00
Orbit: 559 x 562 km, 69.9° (Epoch: 21 March)

Date Brightness Start Highest point End Pass type
(mag) Time Alt. Az. Time Alt. Az. Time Alt. Az.
22 Mar 2.3 19:14:42 10° NNW 19:18:52 81° ENE 19:22:43 12° SSE visible
22 Mar 5.2 20:54:40 10° WNW 20:56:17 12° WSW 20:57:53 10° SW visible
23 Mar 2.5 19:13:22 10° NNW 19:17:31 77° WSW 19:21:38 10° SSE visible
24 Mar 3.0 19:12:04 10° NW 19:16:09 58° WSW 19:20:11 10° SSE visible
25 Mar 3.6 19:10:49 10° NW 19:14:45 43° WSW 19:18:40 10° S visible
26 Mar 4.1 20:09:36 10° NW 20:13:21 33° WSW 20:17:02 10° S visible
27 Mar 4.7 20:08:29 10° NW 20:11:54 25° WSW 20:15:18 10° SSW visible
28 Mar 5.1 20:07:27 10° WNW 20:10:27 19° WSW 20:13:25 10° SSW visible
29 Mar 5.3 20:06:36 10° WNW 20:08:58 15° WSW 20:11:19 10° SW visible
30 Mar 5.7 20:06:12 10° W 20:07:28 11° W 20:08:43 10° WSW visible
